CLUSTER II-FM7 (SAMBA)

Last updated on Sun Jun 21 2026 00:03:39 GMT+0000 (Coordinated Universal Time)

1 26410U 00041A 26172.60140140 .00004700 00000+0 00000+0 0 9991 2 26410 149.9158 51.6298 9060197 268.8497 359.5612 0.44827461 20334
UTC large
Height (km)
Speed (km/s)
/
Latitude / Longitude
Inclination (degrees)
Orbital Period (minutes)
Azimuth
Elevation
Range (km)
Doppler Factor

Next 0 passes for location: London (51.5072 / 0.1276)

No passes found over London.
CLUSTER II-FM7 (SAMBA)